Theta_e
308 308 309 310 310 310 310 309 308 308 309 312 316 316 318 324 327 327 327 326 325 325 325 325 325 324 325 324 325 322 328 333 334 333 331 326 329 327 322 322 327 328 333 334 337
308 308 309 309 309 310 309 310 308 307 307 309 313 316 318 324 327 326 327 326 326 325 324 324 323 325 326 326 325 322 328 330 328 328 329 326 328 325 326 328 331 335 333 337 336
309 308 309 309 308 309 309 307 308 307 307 307 310 316 317 325 325 326 326 326 326 326 324 323 324 325 328 327 327 324 327 327 326 326 326 326 328 325 327 330 330 338 338 336 335
310 309 308 309 308 309 308 305 306 306 306 306 309 314 316 322 329 323 324 325 326 326 324 323 324 328 329 331 328 328 324 324 325 324 326 327 326 326 325 325 327 336 336 336 335
308 308 307 307 308 309 309 304 307 309 306 306 308 313 316 322 323 322 325 324 324 324 323 322 325 327 330 330 329 328 324 323 323 323 324 325 328 326 327 324 331 334 336 335 334
307 307 307 305 304 306 308 306 306 309 307 307 308 313 316 322 321 321 325 323 323 322 322 321 324 325 328 330 330 327 327 324 323 324 326 327 327 327 326 327 333 335 333 333 333
307 307 307 305 304 306 307 303 303 305 307 306 308 313 316 317 319 322 324 323 323 323 321 321 323 326 326 330 326 327 326 324 324 325 328 325 330 327 324 331 334 333 331 331 332
308 307 307 306 304 307 306 302 304 303 306 307 312 313 316 317 316 321 324 323 323 322 322 321 322 323 325 324 328 329 327 328 326 325 325 327 332 327 323 331 331 330 329 330 330
307 307 306 306 304 305 303 302 302 303 306 307 311 311 315 316 318 320 323 323 322 322 321 321 323 325 325 330 331 330 333 329 328 320 322 327 331 326 323 327 328 327 327 329 328
306 307 306 306 304 304 301 300 302 303 305 309 308 309 311 316 316 318 322 322 322 323 323 324 326 328 328 329 335 333 332 330 330 323 321 326 326 322 323 325 325 324 323 324 324
305 306 306 305 303 303 299 304 302 303 307 304 305 307 311 311 315 318 321 322 322 324 325 325 326 327 328 326 325 328 331 329 324 322 321 324 324 322 321 320 320 322 322 323 323
305 305 306 305 303 302 301 303 305 305 306 305 307 308 308 308 313 316 320 325 324 326 324 326 326 322 325 325 325 328 331 330 327 322 323 320 323 321 321 320 319 319 321 321 314
305 305 306 304 304 301 301 303 304 305 305 305 307 308 308 310 313 316 319 319 324 326 323 324 323 321 325 327 328 327 329 329 328 325 321 322 325 321 318 319 319 317 315 314 311
305 306 305 304 302 301 302 301 303 305 300 299 308 309 310 310 315 314 318 321 323 326 323 322 322 323 326 325 325 331 327 327 326 328 331 324 333 326 320 319 320 320 319 312 309
305 305 303 302 302 302 303 304 304 302 293 301 310 310 312 312 314 317 318 318 321 324 324 324 323 323 328 325 323 326 325 326 325 327 324 325 329 328 318 319 319 317 311 310 309
305 303 303 303 302 304 304 304 302 294 296 306 309 311 313 312 315 317 317 316 318 322 321 319 317 321 322 322 322 324 323 322 324 325 328 323 326 325 323 320 316 311 310 309 308
303 302 302 303 303 304 304 300 296 293 298 305 309 311 311 310 314 317 319 319 323 322 322 320 319 317 318 324 324 323 324 323 325 327 326 315 322 321 315 314 317 311 310 310 309
302 302 303 303 304 304 303 302 301 290 298 306 308 308 313 309 309 317 317 320 316 317 320 322 320 320 318 321 324 325 319 323 326 322 318 315 323 321 311 310 307 309 309 308 307
302 301 301 302 303 303 298 302 294 298 304 306 306 310 312 309 308 316 317 318 316 317 320 321 321 315 316 317 320 322 320 313 314 310 316 312 310 309 309 308 307 309 309 308 307
301 301 301 300 301 300 294 304 298 303 303 304 306 310 314 312 311 316 316 314 317 315 314 316 320 316 315 318 316 319 315 318 316 315 314 311 312 310 311 310 308 308 309 307 307
300 294 300 299 301 292 291 292 300 302 302 305 307 311 311 313 312 314 316 313 312 314 314 313 317 318 317 318 318 315 316 314 314 312 314 314 311 307 308 309 308 307 307 308 306
296 292 301 300 292 292 291 298 300 303 304 306 305 307 308 309 312 314 316 313 310 312 314 313 315 319 319 312 312 314 315 313 315 314 311 313 311 307 306 306 307 305 305 306 306
296 293 300 298 289 284 296 299 301 302 304 306 308 306 303 308 311 311 314 312 312 311 312 311 314 316 318 315 313 315 314 314 312 310 312 311 310 306 305 306 305 306 306 306 306
292 291 289 291 294 295 299 302 300 300 302 303 306 306 307 307 306 309 313 312 311 312 311 311 311 311 314 314 314 316 314 313 313 310 311 311 310 307 307 307 306 306 306 305 305
291 293 289 289 290 294 299 300 301 299 299 301 302 303 306 309 309 309 311 313 310 310 309 308 306 307 309 310 313 315 314 314 314 312 313 313 310 308 308 309 309 307 306 306 305
291 290 291 283 292 296 296 296 300 299 299 301 301 302 304 307 306 307 310 310 313 309 309 307 306 306 306 307 308 310 312 312 313 312 313 313 314 310 310 309 308 307 306 306 306
296 295 290 294 291 290 294 297 298 298 298 300 300 301 300 301 302 301 302 304 306 309 309 308 305 298 302 302 304 307 308 311 311 311 311 314 312 309 309 308 307 307 307 306 304
Wind_Speed
7 7 6 7 5 7 7 7 7 5 7 7 7 7 9 8 9 13 8 9 14 13 10 9 11 12 8 3 3 0 2 3 3 3 5 3 5 1 2 7 3 1 7 12 30
9 8 6 6 6 6 7 7 9 8 7 7 8 8 7 6 14 13 12 9 12 11 7 6 3 2 3 4 3 2 3 5 4 2 1 3 4 7 5 4 4 4 7 29 29
11 9 7 6 6 6 7 7 8 10 10 8 8 8 7 7 2 7 21 23 17 12 7 8 7 4 3 2 2 2 5 3 4 6 1 2 3 2 10 2 6 11 16 18 21
14 10 8 6 6 6 7 7 7 9 10 10 7 7 7 3 7 4 13 20 13 11 7 10 3 6 5 4 1 1 7 6 4 3 3 6 5 4 2 6 10 17 21 17 13
17 14 10 7 6 6 6 7 7 8 9 10 7 5 4 4 4 3 12 14 15 17 18 7 3 4 6 3 2 2 5 8 3 6 4 1 2 6 4 3 15 13 15 14 12
17 16 12 9 7 6 6 7 7 8 8 8 8 3 2 4 3 4 18 18 14 14 9 10 6 4 4 3 3 1 5 10 4 5 1 5 2 2 2 9 15 16 10 10 10
18 16 15 11 7 5 7 7 7 8 8 8 7 4 3 7 3 11 18 19 17 11 6 5 13 3 7 4 2 4 5 6 4 2 4 2 1 5 6 9 15 11 9 9 11
21 18 16 12 8 7 6 7 7 8 8 8 3 4 4 4 13 12 16 12 13 8 10 11 7 6 4 1 3 3 3 3 1 1 2 3 7 3 7 14 10 9 8 9 9
23 21 18 14 9 7 6 6 6 6 6 5 0 2 4 5 7 17 16 9 13 9 8 11 3 3 3 5 4 3 6 5 3 5 3 3 4 3 6 9 11 9 9 10 8
22 23 19 15 9 7 5 3 3 4 1 4 2 1 3 3 5 13 19 15 6 11 7 4 3 4 4 6 14 6 8 11 6 3 4 1 3 2 6 8 10 10 9 8 8
22 22 19 15 10 8 4 1 3 2 3 7 4 4 0 6 7 12 21 17 7 4 5 4 3 6 9 6 2 7 3 5 3 2 3 4 4 4 4 6 6 7 7 7 7
23 21 20 16 12 8 5 3 2 2 4 10 6 3 3 4 4 6 16 7 8 11 6 5 7 8 9 8 6 5 7 3 1 5 2 2 2 1 3 4 5 8 8 8 7
23 19 20 17 14 8 4 5 4 2 1 5 5 6 5 2 6 9 14 7 8 9 13 7 5 7 9 10 10 10 13 5 4 3 1 2 1 3 2 3 4 6 6 6 8
22 21 21 19 11 8 3 7 4 2 3 5 5 7 7 5 7 12 27 8 5 15 14 7 5 11 11 10 3 5 10 6 7 3 4 2 5 2 3 6 4 5 6 6 7
23 24 22 15 14 7 4 7 5 2 3 4 3 8 9 7 2 8 15 4 12 8 5 6 17 16 15 12 12 3 12 8 3 3 3 3 2 3 3 3 6 5 7 5 6
27 24 20 12 9 5 9 7 3 5 6 2 2 8 7 12 4 5 7 2 3 8 6 4 1 7 5 8 5 14 11 6 4 3 2 4 2 4 4 5 3 4 4 8 7
29 23 10 9 4 9 8 4 4 3 4 3 3 4 9 8 7 13 16 8 7 7 6 5 4 1 4 12 16 9 12 2 3 1 3 2 6 6 3 6 7 11 9 9 8
26 15 11 11 8 12 5 2 3 5 5 2 3 2 6 7 7 14 19 12 5 3 4 5 5 7 5 7 8 14 4 4 4 4 3 4 5 4 2 4 9 10 10 9 8
21 14 7 6 7 12 4 2 6 4 2 4 3 5 6 5 2 13 17 14 7 6 5 4 3 3 3 4 14 5 3 4 7 3 3 2 4 3 4 8 8 12 12 10 8
9 5 3 6 4 6 4 4 3 3 3 2 2 7 7 9 4 4 18 8 8 5 2 4 5 2 1 5 2 6 7 5 2 4 2 3 3 3 3 7 7 9 12 8 7
3 3 4 5 4 4 3 5 4 6 6 4 4 4 4 5 11 5 13 1 6 8 2 6 3 2 2 1 6 4 3 3 4 3 4 4 4 4 3 6 10 8 9 10 8
3 2 6 3 3 2 3 3 4 5 5 3 3 5 3 3 4 5 8 2 2 13 12 4 4 5 3 4 1 2 6 4 4 4 0 2 2 4 2 6 7 7 8 7 7
2 2 2 2 2 2 2 3 4 3 3 3 3 3 3 2 3 3 7 2 3 4 8 6 2 4 3 5 3 3 3 4 5 2 2 4 3 4 6 8 6 8 7 7 6
3 2 4 3 2 3 1 2 3 3 2 6 5 4 2 6 6 3 4 2 2 4 9 7 4 4 5 4 7 5 5 4 5 3 3 2 4 1 3 7 6 6 7 8 8
3 1 3 1 3 3 0 4 5 6 2 5 4 8 2 4 2 2 3 7 6 5 5 5 4 4 6 3 4 9 9 7 4 4 4 5 7 6 7 6 4 5 4 6 7
3 3 1 2 2 2 3 2 2 4 3 4 5 9 12 5 6 1 7 4 3 5 4 4 3 3 6 7 5 4 5 7 5 5 5 4 3 6 4 2 2 5 6 8 6
2 2 3 5 3 3 2 0 2 1 2 4 1 5 13 10 6 9 13 11 6 4 4 4 6 3 2 4 5 3 6 6 4 3 7 6 7 3 1 4 4 4 3 6 7
Wind_Direction
270 283 284 265 276 275 270 274 284 311 330 322 299 294 292 272 230 208 224 218 214 197 238 267 293 338 349 315 237 81 16 244 254 192 242 165 144 183 49 113 78 57 154 166 151
260 264 277 273 261 276 283 274 278 291 314 332 314 299 304 261 208 223 226 220 216 202 192 136 102 73 346 304 307 133 179 230 219 299 289 307 152 152 105 113 46 51 84 144 144
259 257 262 273 262 269 286 284 278 283 297 313 332 299 306 221 279 248 233 234 233 226 153 109 129 115 157 220 252 241 225 235 285 267 161 232 152 129 124 204 193 154 142 151 150
252 252 251 259 257 256 278 295 287 286 290 298 317 313 305 207 221 274 225 221 225 215 133 134 198 132 145 194 133 343 259 248 252 295 327 167 154 103 169 212 151 155 152 156 162
251 247 251 247 251 253 264 295 306 297 299 300 300 315 298 240 248 314 188 183 168 161 165 157 140 138 165 148 252 206 308 286 263 292 288 143 203 182 231 79 126 136 154 159 161
244 244 248 246 259 250 257 283 297 297 299 312 294 301 248 258 241 216 184 170 173 161 147 156 166 183 104 133 199 8 278 271 278 263 260 146 212 218 97 126 133 151 163 163 165
238 236 239 241 247 230 243 278 292 290 301 315 297 231 237 241 250 200 183 179 177 170 139 163 153 165 138 133 351 305 336 299 247 254 218 104 102 216 136 136 146 160 166 163 177
228 229 232 236 233 210 227 265 274 281 296 318 333 192 258 238 245 214 189 184 177 149 142 147 113 69 65 70 136 186 313 227 163 153 277 123 210 225 153 139 159 164 172 177 191
223 224 223 228 224 210 231 252 280 280 297 309 16 113 259 171 195 215 189 177 157 120 103 128 69 110 127 149 96 207 204 208 178 66 315 159 184 200 163 155 165 179 183 187 198
224 218 218 216 211 210 230 259 282 269 312 125 120 107 227 223 206 208 193 168 157 147 134 143 191 148 138 189 197 175 191 208 207 16 357 237 178 149 158 159 182 183 192 188 189
214 215 209 203 194 191 194 191 46 353 221 200 203 189 253 283 192 201 196 170 142 178 184 150 166 183 184 182 84 134 111 148 13 347 297 255 171 186 140 121 167 189 183 184 193
205 205 196 187 178 175 177 125 198 143 302 241 236 274 298 53 302 220 193 204 165 185 141 130 200 193 166 163 166 162 143 144 337 353 100 283 145 293 168 151 161 155 158 157 111
195 189 182 170 162 167 156 194 140 157 266 275 189 204 172 103 252 212 187 202 191 186 163 171 188 151 155 176 180 189 168 141 129 343 58 221 275 199 189 136 141 123 117 98 130
179 171 166 157 149 145 196 200 184 214 37 267 212 224 156 135 259 206 190 178 184 199 151 190 162 173 160 151 162 152 173 132 114 160 166 314 199 305 214 202 181 193 101 97 84
164 158 157 150 137 155 200 175 183 97 23 232 184 174 146 176 197 217 182 105 232 185 143 176 177 181 179 169 148 145 120 146 130 96 89 349 96 245 260 211 222 170 109 101 114
150 143 144 133 124 143 138 159 106 48 254 303 275 174 143 195 244 127 180 32 99 164 190 136 208 179 152 137 132 138 106 85 77 123 186 178 130 269 216 182 145 82 102 111 89
134 137 130 132 116 150 159 80 52 141 331 269 251 226 178 165 239 175 180 173 165 141 148 136 131 174 170 113 139 147 138 87 83 147 193 179 178 242 221 207 170 154 156 139 108
142 146 103 104 113 145 121 95 210 229 253 358 278 307 227 150 247 180 180 185 236 110 134 146 161 186 168 143 169 165 156 152 144 174 172 127 210 250 270 265 125 125 126 116 137
133 104 83 81 115 149 82 152 210 233 263 287 312 247 209 153 217 166 185 173 173 216 133 142 97 59 86 139 146 185 160 152 99 1 80 202 263 329 54 73 120 130 134 152 156
137 99 65 32 121 118 85 266 253 241 250 205 234 214 215 147 151 226 178 177 161 180 78 172 104 334 212 99 45 179 166 80 22 135 182 254 250 215 154 152 147 149 156 156 159
69 61 13 5 125 55 160 243 269 261 220 213 257 293 265 137 173 215 158 20 155 143 257 140 126 163 112 199 170 132 149 87 115 126 149 147 246 196 208 207 179 179 169 163 160
84 51 353 35 60 104 175 218 300 262 259 290 259 240 289 109 140 161 163 112 164 142 161 230 101 116 126 246 291 99 136 138 127 225 255 141 252 330 335 225 194 166 162 169 163
84 244 310 41 125 290 251 245 241 277 292 300 276 33 324 58 118 86 104 18 251 112 157 181 114 102 78 11 13 169 172 123 111 72 191 123 249 357 40 67 95 130 138 156 174
84 33 328 47 183 149 259 318 311 250 291 297 300 308 25 24 31 123 126 70 40 98 76 100 91 156 169 139 130 145 133 143 116 112 165 188 147 164 125 105 108 122 140 159 183
53 94 171 279 335 324 351 351 345 9 308 340 19 356 323 25 97 86 121 105 44 19 61 84 99 85 33 43 94 164 166 157 118 148 131 184 152 184 172 156 166 188 191 197 210
132 144 114 204 272 40 4 343 329 324 322 0 81 32 40 47 35 49 144 71 92 20 72 23 136 85 34 14 70 99 130 135 115 141 97 113 245 206 237 55 275 254 209 223 228
122 98 96 331 353 74 250 210 307 271 336 32 354 63 53 36 25 68 72 75 80 113 104 93 134 82 275 342 66 7 197 151 147 157 145 185 219 109 353 324 293 309 325 201 179